Location: B�hl
(48.6968°N, 8.1352°E)
Time: 23:17:02
(UTC+00:00)

CZ-2C R/B - Pass Details

Date: 08 March 2021
Orbit: 783 x 871 km, 98.2° (Epoch: 20 April)

Event Time Altitude Azimuth Distance (km) Brightness Sun altitude
Rises 18:07:15 0° 18° (NNE) 3,415 5.7 -8.2°
Reaches altitude 10° 18:09:46 10° 25° (NNE) 2,462 4.9 -8.7°
Maximum altitude 18:14:59 46° 98° (E) 1,104 2.9 -9.5°
Drops below altitude 10° 18:20:04 10° 171° (S) 2,389 4.9 -10.4°
Sets 18:22:27 0° 177° (S) 3,304 5.7 -10.7°
